Airfield :







YOU CAN JOIN US ON...

 
LOGIN :

Register | Disclaimer

   EN    FR    IT 

 









Legend :    VFR   Marginal VFR   IFR   Intensive IFR   Very Intensive IFR
Visi :
Ceiling :
>= 8 km
>= 3000ft
5 to 8 km
1000 to 3000 ft
1500m to 5 km
500 to 1000 ft
800 to 1500m
200 to 500 ft
< 800m
< 200 ft
Symbols :   Thunderstorms  Fog  Heavy snow  Heavy precipitations  Wind > 20 kt






- Airport Elevation : 193 ft
- IATA code : ZBF


CZBF - Bathurst

CURRENT METAR :
  • 050800Z AUTO 22002KT 9SM OVC066 M10/M12 A3007 RMK SLP189

EXPIRED METARs :
  • 050700Z AUTO 21003KT 9SM BKN040 OVC055 M10/M13 A3007 RMK SLP190
  • 050644Z AUTO 21004KT 9SM OVC040 M10/M13 A3007 RMK SLP189
  • 050618Z AUTO 26003KT 240V320 9SM -SN OVC046 M10/M13 A3005 RMK SLP184
  • 050600Z AUTO VRB02KT 9SM BKN060 OVC072 M10/M13 A3006 RMK SLP185

Expired Forecast.
CZQM FIR / North America



MET'MAP, your aeronautical weather chart ! - Copyright ORBIFLY December 2007 - Disclaimer

ORBIFLY MET'MAP TEAM :

Programming & Development : Alexandra Zaïnal
Concept & original design : Baudouin d'Aumeries
Assistance for programming : Marc-Olivier Méhu
Technical & hardware support : Manuel Goepfert

Contact : metmap@orbifly.com




SOURCES & CREDITS :

   NOAA